Location: Unspecified
(0.0000°N, 0.0000°E)
Time: 12:17:03
(UTC+00:00)

Vanguard 2 - Pass Details

Date: 14 December 2018
Orbit: 552 x 2939 km, 32.9° (Epoch: 25 March)

Event Time Altitude Azimuth Distance (km) Brightness Sun altitude
Rises 17:03:44 0° 257° (WSW) 3,063 12.5 11.7°
Reaches altitude 10° 17:06:43 10° 273° (W) 1,956 11.0 11.0°
Maximum altitude 17:10:01 22° 324° (NW) 1,249 8.9 10.3°
Drops below altitude 10° 17:13:07 10° 17° (NNE) 1,816 9.1 9.6°
Sets 17:15:46 0° 34° (NE) 2,779 9.9 8.9°
